www.pogodaiklimat.ru

Погода и климат >> Архив погоды >> Мозамбик >> Панда


ПОГОДА в Панда

  • Прогноз погоды в Панда
  • Монитор погоды в Панда

АРХИВ ПОГОДЫ в Панда

Время (UTC), дата Ветер
(напр.,м/с)
 
Видим.   Явления Облачность Т
(С)
Тd
(С)
f
(%)
Тe
(С)
Тes
(С)
Комфортность P
(гПа)
Po
(гПа)
Тmin
(С)
Tmax
(С)
R
(мм)
R24
(мм)
S
(см)
03 9.06 ЮВ 3 15 км слаб. ливневой дождь 4/4 600 м
[Cu med, cong]
+18.8 +17.5 92 +20 +20 1027.4 1009.5
06 9.06 Ю 3 30 км {ливн. осадки} 3/3 600 м
[Cu med, cong]
+18.8 +17.3 91 +20 +22 1028.1 1010.2 +17.5 0.8
09 9.06 Ю 5 25 км в посл. час дождь {морось} 6/6 300 м
[Cu Sc]
+22.1 +19.1 83 +28 +30 душно 1028.4 1010.7
12 9.06 Ю 7 30 км 6/6 600 м
[Cu Sc]
+23.9 +15.7 60 +27 +28 жарко 1026.5 1008.9 2
15 9.06 ЮВ 4 30 км 3/3 600 м
[Cu hum]
+22.0 +15.7 67 +26 +26 душно 1026.3 1008.6
18 9.06 В 3 30 км 3/3 600 м
[Cu med, cong]
+19.0 +16.5 85 +21 +21 комфорт 1026.8 1008.9 +24.2 2
03 10.06 ЮВ 2 30 км ясно +16.2 +14.8 91 +16 +16 1024.7 1006.7
06 10.06 Ю 3 30 км 3/3 600 м
[Cu med, cong]
+18.6 +15.9 84 +20 +21 1025.4 1007.5 +16.0 2
09 10.06 ЮВ 4 30 км 5/5 600 м
[Cu med, cong]
+24.0 +17.4 67 +28 +32 душно 1025.6 1008.1
18 10.06 Ю 5 30 км ясно +20.4 +18.8 91 +24 +24 комфорт 1023.8 1006.1 +28.0
03 11.06 СВ 2 30 км ясно +17.6 +16.9 96 +18 +18 1023.5 1005.6
06 11.06 СВ 1 30 км ясно +20.2 +19.6 96 +25 +28 комфорт 1024.8 1007.0 +16.0
09 11.06 ЮВ 3 30 км 5/5 600 м
[Cu med, cong]
+25.4 +17.4 61 +29 +33 душно 1025.0 1007.6
12 11.06 ЮЗ 4 30 км 4/4 600 м
[Cu med, cong]
+27.4 +14.9 46 +30 +33 жарко 1022.4 1005.1
15 11.06 ЮВ 5 30 км 1/1 600 м
[Cu hum]
+23.6 +17.3 68 +27 +27 жарко 1022.5 1005.0
18 11.06 Ю 4 30 км 1/1 600 м
[Cu hum]
+20.0 +17.1 83 +23 +23 комфорт 1023.3 1005.6 +27.9
03 12.06 В 2 30 км ясно +16.0 +15.1 94 +16 +16 1022.1 1004.1
06 12.06 СВ 3 900 м туман на расстоянии 1/1 600 м
[Cu hum]
+18.0 +16.5 91 +18 +20 1022.7 1004.9 +15.5
09 12.06 СЗ 4 30 км ясно +25.3 +15.4 54 +28 +35 жарко 1022.2 1004.8
12 12.06 В 3 30 км 4/4 600 м
[Cu med, cong]
+27.5 +12.2 39 +29 +32 жарко 1019.0 1001.8
15 12.06 ЮВ 3 30 км 4/4 600 м
[Cu med, cong]
+26.5 +13.7 45 +29 +29 жарко 1018.6 1001.3
18 12.06 В 2 30 км 8/8 600 м
[Cu med, cong]
+21.9 +17.0 74 +26 +26 душно 1020.5 1002.9 +29.5
03 13.06 СВ 2 30 км ясно +17.7 +16.5 93 +18 +18 1019.7 1001.9
06 13.06 С 3 30 км ясно +18.8 +16.7 88 +20 +22 1021.1 1003.3 +15.7
09 13.06 Ю 7 30 км ясно +25.8 +11.4 41 +27 +30 жарко 1022.0 1004.6
12 13.06 З 8 30 км 1/1 600 м
[Cu hum]
+27.4 +10.9 36 +28 +29 жарко 1021.3 1004.0
15 13.06 ЮЗ 9 20 км в посл. час ливневой дождь 8/8 600 м
[Cu Sc]
+21.7 +18.0 79 +26 +26 душно 1023.2 1005.6
18 13.06 Ю 8 30 км {ливн. осадки} 6/6 600 м
[Cu Sc]
+20.7 +17.7 83 +24 +24 комфорт 1025.4 1007.7 +28.5 1
03 14.06 С 2 30 км 5/5 600 м
[Cu Sc]
+18.1 +14.7 81 +19 +19 1025.8 1007.9
06 14.06 В 3 30 км 3/3 600 м
[Cu hum]
+18.9 +14.8 77 +20 +22 1027.3 1009.4 +17.0 2
09 14.06 З 9 30 км 8/8 600 м
[Cu med, cong]
+22.8 +11.8 50 +25 +25 комфорт 1027.9 1010.2
12 14.06 Ю 11 30 км 6/6 600 м
[Cu med, cong]
+23.2 +11.0 46 +25 +25 комфорт 1027.0 1009.4
15 14.06 Ю 5 30 км 1/1 600 м
[Cu hum]
+20.2 +10.2 53 +22 +22 комфорт 1027.1 1009.3
18 14.06 ЮЗ 5 30 км 1/0
[Ci fib]
+17.0 +10.2 64 +16 +16 1028.3 1010.3 +24.0
03 15.06 СВ 2 30 км 5/5 600 м
[Cu Sc]
+15.3 +13.3 88 +15 +15 1024.9 1006.8
06 15.06 С 2 30 км 8/8 600 м
[Cu Sc]
+16.8 +14.9 89 +17 +17 1025.9 1007.9 +14.0
09 15.06 ЮВ 3 30 км 8/8 600 м
[Cu Sc]
+22.1 +14.5 62 +25 +27 комфорт 1025.8 1008.1
12 15.06 ЮВ 4 30 км 9/9 600 м
[Cu Sc]
+22.6 +15.3 63 +26 +27 жарко 1024.4 1006.8
15 15.06 Ю 3 30 км 9/9 600 м
[Cu Sc]
+21.0 +14.9 68 +25 +25 комфорт 1024.3 1006.6

 

Местоположение метеостанции Панда (Мозамбик): широта -24.05 долгота 34.05 высота над уровнем моря 150 м.

В архиве по умолчанию представлена погода в Панда за последнюю неделю. Архивные данные за месяц целиком и за предыдущие месяцы, начиная с января 2011 года, Вы можете получить, выбрав интересующий диапазон дат из раскрывающегося списка и нажав кнопку "Ввод!".


*Определитесь, кто Вы:
робот инопланетянин человек

Внимание! Время в таблицах - всемирное. Для получения местного времени необходимо прибавить поправку, которая равна 2 ч.

Смотрите также архив погоды в соседних городах и на ближайших метеорологических станциях:

Погода в Шаи-Шаи (Мозамбик) (119 км)
Погода в Иньямбане (Мозамбик) (137 км)
Погода в Вувулане (Свазиленд) (220 км)
Погода в Мапуту (Мозамбик) (255 км)
Погода в Виланкуло (Мозамбик) (262 км)
Погода в Скукузе (Южная Африка) (269 км)
Погода в Коматидрааи (Южная Африка) (271 км)
Погода в Пхалаборве (Южная Африка) (294 км)
Погода в Массанджена (Мозамбик) (299 км)
Погода в Хоэдспруите (Южная Африка) (306 км)

Пояснения к столбцам:

Ветер - указаны скорость ветра в м/с - средняя за 10 мин, порывы в срок и между сроками (в фигурных скобках) и направление, откуда дует ветер: С - северный, СВ - северо-восточный, В - восточный, ЮВ - юго-восточный, Ю - южный, ЮЗ - юго-западный, З - западный, СЗ - северо-западный.
Видимость - горизонтальная дальность видимости в метрах или километрах. При видимости от 1 до 10 км при отсутствии осадков обычно наблюдается дымка, при ухудшении видимости до 1 км и менее - туман. В сухую погоду видимость может ухудшаться дымом, пылью или мглою.
Явления - указаны атмосферные явления, наблюдавшиеся в срок или в последний час перед сроком; фигурными скобками обозначены явления, наблюдавшиеся между сроками (за 1-3 часа до срока); квадратными скобками обозначены град или гололедные отложения с указанием их диаметра в мм.
Облачность - указаны через наклонную черту общая и нижняя облачность в баллах и высота нижней границы облаков в метрах; квадратными скобками обозначены формы облаков: Ci - перистые, Cs - перисто-слоистые, Cc - перисто-кучевые, Ac - высококучевые, As - высокослоистые, Sc - слоисто-кучевые, Ns - слоисто-дождевые, Cu - кучевые, Cb - кучево-дождевые. Подробнее классификацию облаков см. в Атласе облаков (PDF).
T - Температура воздуха - температура, измеренная на высоте 2 м над землей.
Td - Температура точки росы - температура, при понижении до которой содержащийся в воздухе водяной пар достигнет насыщения.
f - Относительная влажность воздуха - влажноcть воздуха, измеренная на высоте 2 м над землей.
Te - Эффективная температура - температура, которую ощущает одетый по сезону человек в тени. Характеристика душности погоды. При расчете учитывается влияние влажности воздуха и скорости ветра на теплоощущения человека.
Tes - Эффективная температура на солнце - температура, которую ощущает человек, с поправкой на солнечный нагрев. Характеристика знойности погоды. Зависит от высоты солнца над горизонтом, облачности и скорости ветра. Ночью, в пасмурную погоду, а также при ветре 12 м/с и более поправка равна нулю.
P - Атмосферное давление - приведенное к уровню моря атмосферное давление.
Po - Атмосферное давление - измеренное на уровне метеостанции атмосферное давление.
Tmin - Минимальная температура - минимум температуры воздуха на высоте 2 м над землей.
Tmax - Максимальная температура - максимум температуры воздуха на высоте 2 м над землей.
R - Количество осадков - Количество выпавших осадков за период времени, мм. При наведении курсора мыши на число - период времени, за который выпало указанное количество осадков.
R24 - Количество осадков - Количество выпавших осадков за 24 часа, мм.
S - Снежный покров - Высота снежного покрова, см. При наведении курсора мыши на число - состояние снежного покрова и степень покрытия местности в баллах.